Location: Estes P
(40.3770°N, 105.5210°W)
Time: 19:53:59
(UTC-07:00)

Hubble Space Telescope - Visible Passes

Search period start: 11 December 2017 00:00
Search period end: 21 December 2017 00:00
Orbit: 538 x 541 km, 28.5° (Epoch: 11 December)

Date Brightness Start Highest point End Pass type
(mag) Time Alt. Az. Time Alt. Az. Time Alt. Az.
11 Dec 3.3 17:11:33 10° S 17:13:10 12° SSE 17:14:47 10° SE visible
11 Dec 3.1 18:51:08 10° SW 18:53:38 16° S 18:53:38 16° S visible
12 Dec 3.0 18:40:50 10° SW 18:43:16 15° S 18:44:04 15° S visible
13 Dec 3.2 18:30:36 10° SW 18:32:55 15° S 18:34:33 12° SSE visible
14 Dec 3.3 18:20:27 10° SW 18:22:34 14° S 18:24:41 10° SSE visible
15 Dec 3.4 18:10:24 10° SW 18:12:12 13° S 18:13:59 10° SSE visible
16 Dec 3.6 18:00:34 10° SSW 18:01:49 11° SSW 18:03:04 10° S visible
